map of ROV home
Great Circle Mapper logo
ROV - Airport
Location
City:  Rostov Na Donu, Russian Federation (Russia)
ICAO / IATA:URRR / ROV

Details
Type:Airport (Aerodrome, Airfield)
Use:Public/Civil
Latitude:4715'30"N (47.258208)
Longitude:3949'05"E (39.818089)
Datum:WGS 1984
Elevation:280 ft (85 m)
Variation:7.85E (WMM2015 magnetic declination)
0.10 annual change
Runways:3
Longest:8202 × 148 ft (2500 × 45 m), paved

Time
Time Zone:UTC+3 (DST+4)

Weather
METAR:URRR 271230Z 10010MPS CAVOK 08/03 Q1024 04CLRD70 TEMPO 09010G15MPS
TAF:URRR 271057Z 2712/2812 09008G13MPS 9999 SCT010 530005
BECMG 2716/2718 09010G15MPS 2100 -DZ BR OVC007

Related Locations
Nearby:
Farthest:NTAV: 10767 mi / 17328 km
Raivavae, Tubuai Islands, Austral Islands, PF

Find:

   beyond  
but within

Other Information
Maps:
NOTAMs:
Links:
Sources:

  
flag of Russian Federation (Russia)   

Sectional Chart

Flight Planning
at skyvector.com

Satellite Image

Google Maps Satellite View

 

Copyright © 2004-2015 Karl L. Swartz. All rights reserved.
The Great Circle Mapper name and logo are trademarks of the Great Circle Mapper.
All other trademarks mentioned herein belong to their respective owners.
Please see credits for attibutions and further copyright information.

  Follow gcmap on Facebook Follow gcmap on Twitter Follow gcmap on Google+

hCard Microformat

Geo Microformat